Location: Monrovia
(34.7865°N, 86.7139°W)
Time: 21:42:13
(UTC+00:00)

Cosmos 2369 - Pass Details

Date: 14 July 2020
Orbit: 839 x 857 km, 71.0° (Epoch: 08 August)

Event Time Altitude Azimuth Distance (km) Brightness Sun altitude
Rises 08:30:52 0° 336° (NNW) 3,431 7.2 -22.3°
Reaches altitude 10° 08:33:20 10° 334° (NNW) 2,493 6.4 -22.0°
Maximum altitude 08:39:01 69° 252° (WSW) 914 3.6 -21.2°
Enters shadow 08:42:04 28° 176° (S) 1,540 4.7 -20.8°
